Regional Weather Roundup
Issued by NWS Wakefield, VA

Home | Current Version | Previous Version | Graphics & Text | Print | Product List | Glossary On
Versions: 1 2 3 4 5 6 7 8 9 10 11 12 13 14 15 16 17 18 19 20 21 22 23 24 25 26 27
000
ASUS41 KAKQ 231710
RWRAKQ

REGIONAL WEATHER ROUNDUP
NATIONAL WEATHER SERVICE WAKEFIELD VA
100 PM EDT THU OCT 23 2014

Note: "fair" indicates few or no clouds below 12,000 feet with no
significant weather and/or obstructions to visibility. * = Denotes
station may not report precipitation (e.g., rain,snow,etc.),
thunder or fog.

VAZ042-051-052>054-056-231800-
NORTHERN VIRGINIA

CITY           SKY/WX    TMP DP  RH WIND       PRES   REMARKS
WASH NATIONAL  PTSUNNY   64  44  48 NW24G31   29.88F
DULLES         MOSUNNY   62  44  51 NW23G35   29.89F
FORT BELVOIR   MOSUNNY   63  44  51 NW16G32   29.88F
QUANTICO       MOSUNNY   64  44  48 N20G30    29.90F
FREDERICKSBRG* MOSUNNY   65  46  49 NW16G28   29.89F
STAFFORD*      SUNNY     63  44  50 NW17G32   29.94F
WARRENTON      MOSUNNY   65  51  61 NW15G23   29.91F
CULPEPER*      SUNNY     64  45  48 NW10G24   29.93F
MANASSAS*      NOT AVBL
LEESBURG*      MOSUNNY   64  48  55 N21G31    29.90F
WINCHESTER     SUNNY     61  37  41 NW23G32   29.95F
FRONT ROYAL*   MOSUNNY   59  43  55 NW18G25   29.95F
LURAY*         CLOUDY    63  45  51 N10G17    29.98F
$$

VAZ048-049-060>072-079>083-231800-
CENTRAL AND SOUTH CENTRAL VIRGINIA...AND NORTH CENTRAL NORTH CAROLINA

CITY           SKY/WX    TMP DP  RH WIND       PRES   REMARKS
RICHMOND       MOSUNNY   66  45  46 NW17      29.90F
CHESTERFIELD*  SUNNY    N/A N/A N/A NW12G21   29.92F
PETERSBURG*    SUNNY     64  42  44 NW13G23   29.91F
HANOVER        SUNNY     65  46  50 NW10G22   29.91F
TAPPAHANNOCK*  SUNNY     65  40  40 W14G22    29.88F
CHARLOTTSVILLE SUNNY     64  43  46 NW15G25   29.94F
ORANGE*        SUNNY     64  45  48 NW14      29.93F
LOUISA*        SUNNY     66  45  45 N15G25    29.91F
FARMVILLE*     SUNNY     66  43  42 NW10G18   29.92F
CREWE*         SUNNY     65  43  44 NW15G21   29.92F
FORT PICKETT*  SUNNY     64  44  48 NW17G28   29.92F
LUNENBURG*     SUNNY     65  45  49 NW10G20   29.94F
SOUTH HILL*    SUNNY     66  45  45 W8        30.00F
LAWRENCEVILLE* SUNNY     63  46  53 NW14G23   29.92F
ROANOKE RAPIDS SUNNY     63  45  51 NW15G22   29.94F
RALEIGH        SUNNY     64  42  44 NW7       30.00F
$$

VAZ088>098-231800-
SOUTHEAST VIRGINIA

CITY           SKY/WX    TMP DP  RH WIND       PRES   REMARKS
NORFOLK        SUNNY     63  45  51 NW10G18   29.86F
VIRGINIA BEACH MOSUNNY   63  46  54 NW22      29.85F
NORFOLK NAVAL  MOSUNNY   64  46  52 NW17G24   29.88F
WEST POINT*    SUNNY     67  43  42 NW10G20   29.89S
NEWPORT NEWS   PTSUNNY   64  46  52 NW15G21   29.88F
LANGLEY AFB    CLOUDY    62  47  56 NW20G25   29.87F
FORT EUSTIS    PTSUNNY   64  44  49 NW12G23   29.86F
WILLIAMSBURG*  SUNNY     66  48  52 NW10G22   29.89S
HR EXEC AP*    PTSUNNY   64  48  55 W14G20    29.89F
FRANKLIN*      SUNNY     63  45  51 NW16G24   29.90F
WAKEFIELD      SUNNY     64  45  49 NW9G17    29.89F
$$

VAZ020-022-025-037-045-231800-
WEST CENTRAL AND SOUTHWEST VIRGINIA

CITY           SKY/WX    TMP DP  RH WIND       PRES   REMARKS
STAUNTON*      SUNNY     62  41  46 N18       30.01F
HOT SPRINGS VA CLOUDY    45  39  77 NW17G23   30.04S
LYNCHBURG      SUNNY     63  42  46 W8G18     30.00F
DANVILLE       SUNNY     66  42  41 N16G24    30.01F
SOUTH BOSTON*  NOT AVBL
MARTINSVILLE   SUNNY     63  40  43 NW14G24   30.07F
ROANOKE        MOSUNNY   60  39  45 NW13      30.08F
BLACKSBURG     SUNNY     54  45  71 W8G17     30.11F
DUBLIN*        PTSUNNY   52  41  65 NW12G17   30.12F
MARION*        PTSUNNY   50  38  63 NW10G17   30.17F
HILLSVILLE*    SUNNY     49  38  65 NW16G28   30.10F
RICHLANDS*     CLOUDY    49  40  71 N6        30.18F
WISE*          CLOUDY    48  36  61 N7        30.21S
ABINGDON*      CLOUDY    52  39  63 NE3       30.18F
$$

MDZ021>025-VAZ099-100-231800-
SOUTHERN MARYLAND AND THE DELMARVA PENINSULA

CITY           SKY/WX    TMP DP  RH WIND       PRES   REMARKS
PATUXENT RIVER PTSUNNY   60  45  57 NW17G29   29.85S
BAY BRIDGE APT   N/A     59  45  58 NW16G25   29.83F
LEONARDTOWN    CLOUDY    61  45  55 W14G21    29.87F
DOVER          MOSUNNY   55  50  84 NW15G21   29.77F
GEORGETOWN     CLOUDY    57  47  69 NW12G24   29.79F
EASTON         CLOUDY    59  48  67 NW14G23   29.86
CAMBRIDGE      CLOUDY    59  45  58 NW13G20   29.82F
SALISBURY      CLOUDY    60  46  59 NW15G22   29.81S
OCEAN CITY     CLOUDY    56  47  71 NW13G20   29.78F
WALLOPS ISLAND PTSUNNY   61  47  59 N17G30    29.80F
ACCOMACK*      CLOUDY    59  45  58 NW16G23   29.83S
$$

NCZ012>017-030>032-231800-
EASTERN NORTH CAROLINA

CITY           SKY/WX    TMP DP  RH WIND       PRES   REMARKS
ELIZABETH CITY SUNNY     65  46  50 W14G25    29.87F
AHOSKIE*       SUNNY     61  44  52 NW6       29.92F
EDENTON*       SUNNY     64  45  50 NW14G21   29.90F
CURRITUCK*     MOSUNNY   62  43  49 W13G22    29.87F
KILL DEVIL HLS MOSUNNY   61  47  59 W12G20    29.86F
MANTEO         SUNNY     61  46  59 NW16      29.88F
CAPE HATTERAS  SUNNY     61  47  59 NW12G23   29.90F
TARBORO*       SUNNY     66  45  45 NW12      29.95F
GOLDSBORO      SUNNY     65  48  52 W5        29.95F
WASHINGTON     SUNNY     63  45  51 NW9G17    29.93F
GREENVILLE     SUNNY     64  45  48 NW9G17    29.96F
NEW BERN       SUNNY     67  45  45 W10       29.95F
WILMINGTON     SUNNY     66  44  45 NW13      29.98F
$$

VAZ048-231800-
ELSEWHERE

CITY           SKY/WX    TMP DP  RH WIND       PRES   REMARKS
HARRISBURG PA  CLOUDY    58  44  60 N22G32    29.85F
BALTIMORE      PTSUNNY   59  44  57 N15G30    29.85S
ANNAPOLIS      CLOUDY    61  46  57 NW14G24   29.84F
ANDREWS AFB    PTSUNNY   61  45  55 NW23G32   29.86F
WILMINGTON DE  CLOUDY    57  46  66 NW17G24   29.80F
PHILADELPHIA   CLOUDY    55  46  71 NW16      29.78F
WILDWOOD NJ*   CLOUDY    54  45  71 NW15G23   29.77F
ATLANTIC CITY  CLOUDY    52  47  83 NW16G25   29.74S
HENDERSON NC   SUNNY     63  41  44 NW7G17    29.97F
GREENSBORO     SUNNY     64  41  42 NW10G17   30.03F
ROCKY MOUNT    SUNNY     66  43  43 NW10      29.95F
FAYETTEVILLE   SUNNY     65  42  43 NW9       30.01F
CHARLOTTE      SUNNY     65  37  35 N14       30.07F
$$

VAZ100-231800-
MARINE

STATION/POSITION TIME  TEMP    WIND        PRES    WAVE   SWELL
                       AIR SEA DIR/SP/G            HT/PER HT/PER
                 (UTC) (F)     (DEG/KT/KT) (MB)    (FT/S) (FT/S)
44066 TX TWR #4  1700   58 67  340/ 21/ 27 1001.1S  10/ 7
CAPE MAY NJ      1700   54 63  320/ 24/ 33 1007.3F
LEWES DE         1700   55 59  320/ 27/ 32 1008.0F
15NM E FENWICK I 1700   55 65  310/ 27/ 35 1006.6F   9/ 8   3/16
OCEAN-CITY-INLET 1700   56 64  330/ 14/ 18 1008.0F
WACHAPREAGUE VA  1700   59 60  320/  8/ 17 1009.9F
THOMAS POINT MD  1700   59 62  320/ 16/ 19 1011.2F
GOOSES REEF MD   1700   60     340/ 19/ 25 1011.0F
COVE POINT MD    1700   59     340/ 19/ 22 1010.9S
SOLOMONS ISLAND  1700      65                N/A
BISHOPS HEAD MD  1700   59 55  330/ 21/ 27 1009.9F
PINEY POINT MD   1700          340/ 23/ 25   N/A
POTOMAC MD       1700   60     330/ 19/ 25 1010.4S
CAMBRIDGE MD     1700   58 60  310/ 15/ 21 1009.8F
LEWISETTA VA     1700   59 60  330/ 16/ 22 1010.9F
RAPPAHANNOCK LGT 1700          320/ 25/ 29 1010.9F
STINGRAY PT      1700   60     330/ 17/ 23 1011.5F
YORK RVR RNG VA  1700   60     340/ 23/ 27 1010.5F
YORKTOWN VA      1700   60 65  310/ 20/ 22 1011.1S
JAMESTOWN VA     1700   60     330/ 16/ 21   N/A
DOMINION TERM VA 1700   60     310/ 19/ 24 1011.2F
KIPTOPEKE VA     1700      66  340/ 24/ 27   N/A
CHES BAY BRIDGE  1700   59 66  290/ 19/ 26 1010.8R
CAPE HENRY VA    1700   59     320/ 21/ 25 1009.9S
CHESAPEAKE LGHT  1600   57     320/ 29/ 32 1011.1F
WILLOUBY STN VA  1700   60     300/ 18/ 22 1010.1F
S CRANEY ISL VA  1700          280/ 13/ 21 1011.1F
CAPE HENRY BUOY  1700      68                N/A     6/ 4
1ST LANDING BUOY 1700   60     320/ 19/ 23 1010.8S
CAPE CHARLES BUO 1700      67                N/A     5/ 4   3/ 8
64NM E OF VA BCH 1700   60 68  320/ 25/ 29 1008.7F   9/ 7   3/14
DUCK PIER NC     1700   59 67  300/ 13/ 16 1010.3F
44100 DUCK FRF   1600      69                N/A     6/ 9   2/11
44056 DUCK FRF   1700                        N/A     5/10   2/11
OREGON INLET NC  1700   59 63  310/ 14/ 18 1011.7R
HATTERAS NC      1700   60 62  310/ 18/ 21 1012.9F
DIAMOND SHLS NC  1700   61     300/ 19/ 27 1012.6F
CAPE LOOKOUT NC  1600   61     320/  7/  9 1014.4F
$$



USA.gov is the U.S. government's official web portal to all federal, state and local government web resources and services.